Year,Month,Day,Hour,Minute,Value (Times are PST for temperature in C)
2018,08,05,00,00,17.90
2018,08,05,00,01,17.90
2018,08,05,00,02,17.90
2018,08,05,00,03,17.80
2018,08,05,00,04,17.80
2018,08,05,00,05,17.80
2018,08,05,00,06,17.80
2018,08,05,00,07,17.70
2018,08,05,00,08,17.70
2018,08,05,00,09,17.70
2018,08,05,00,10,17.70
2018,08,05,00,11,17.60
2018,08,05,00,12,17.60
2018,08,05,00,13,17.60
2018,08,05,00,14,17.60
2018,08,05,00,15,17.50
2018,08,05,00,16,17.50
2018,08,05,00,17,17.50
2018,08,05,00,18,17.40
2018,08,05,00,19,17.40
2018,08,05,00,20,17.40
2018,08,05,00,21,17.40
2018,08,05,00,22,17.40
2018,08,05,00,23,17.30
2018,08,05,00,24,17.30
2018,08,05,00,25,17.30
2018,08,05,00,26,17.30
2018,08,05,00,27,17.30
2018,08,05,00,28,17.30
2018,08,05,00,29,17.30
2018,08,05,00,30,17.20
2018,08,05,00,31,17.20
2018,08,05,00,32,17.20
2018,08,05,00,33,17.20
2018,08,05,00,34,17.10
2018,08,05,00,35,17.10
2018,08,05,00,36,17.10
2018,08,05,00,37,17.10
2018,08,05,00,38,17.00
2018,08,05,00,39,17.00
2018,08,05,00,40,17.00
2018,08,05,00,41,17.00
2018,08,05,00,42,17.00
2018,08,05,00,43,16.90
2018,08,05,00,44,16.90
2018,08,05,00,45,16.90
2018,08,05,00,46,16.90
2018,08,05,00,47,16.90
2018,08,05,00,48,16.90
2018,08,05,00,49,16.90
2018,08,05,00,50,16.80
2018,08,05,00,51,16.80
2018,08,05,00,52,16.80
2018,08,05,00,53,16.80
2018,08,05,00,54,16.80
2018,08,05,00,55,16.80
2018,08,05,00,56,16.80
2018,08,05,00,57,16.80
2018,08,05,00,58,16.80
2018,08,05,00,59,16.80
2018,08,05,01,00,16.80
2018,08,05,01,01,16.80
2018,08,05,01,02,16.70
2018,08,05,01,03,16.70
2018,08,05,01,04,16.70
2018,08,05,01,05,16.70
2018,08,05,01,06,16.70
2018,08,05,01,07,16.70
2018,08,05,01,08,16.70
2018,08,05,01,09,16.70
2018,08,05,01,10,16.70
2018,08,05,01,11,16.70
2018,08,05,01,12,16.70
2018,08,05,01,13,16.70
2018,08,05,01,14,16.70
2018,08,05,01,15,16.70
2018,08,05,01,16,16.70
2018,08,05,01,17,16.70
2018,08,05,01,18,16.70
2018,08,05,01,19,16.70
2018,08,05,01,20,16.70
2018,08,05,01,21,16.70
2018,08,05,01,22,16.70
2018,08,05,01,23,16.70
2018,08,05,01,24,16.70
2018,08,05,01,25,16.60
2018,08,05,01,26,16.60
2018,08,05,01,27,16.60
2018,08,05,01,28,16.60
2018,08,05,01,29,16.50
2018,08,05,01,30,16.40
2018,08,05,01,31,16.40
2018,08,05,01,32,16.40
2018,08,05,01,33,16.40
2018,08,05,01,34,16.40
2018,08,05,01,35,16.40
2018,08,05,01,36,16.40
2018,08,05,01,37,16.30
2018,08,05,01,38,16.30
2018,08,05,01,39,16.30
2018,08,05,01,40,16.30
2018,08,05,01,41,16.20
2018,08,05,01,42,16.20
2018,08,05,01,43,16.20
2018,08,05,01,44,16.10
2018,08,05,01,45,16.10
2018,08,05,01,46,16.10
2018,08,05,01,47,16.10
2018,08,05,01,48,16.10
2018,08,05,01,49,16.00
2018,08,05,01,50,15.90
2018,08,05,01,51,15.90
2018,08,05,01,52,15.90
2018,08,05,01,53,15.80
2018,08,05,01,54,15.80
2018,08,05,01,55,15.80
2018,08,05,01,56,15.80
2018,08,05,01,57,15.80
2018,08,05,01,58,15.80
2018,08,05,01,59,15.80
2018,08,05,02,00,15.80
2018,08,05,02,01,15.70
2018,08,05,02,02,15.70
2018,08,05,02,03,15.70
2018,08,05,02,04,15.70
2018,08,05,02,05,15.70
2018,08,05,02,06,15.70
2018,08,05,02,07,15.70
2018,08,05,02,08,15.60
2018,08,05,02,09,15.60
2018,08,05,02,10,15.60
2018,08,05,02,11,15.60
2018,08,05,02,12,15.60
2018,08,05,02,13,15.60
2018,08,05,02,14,15.60
2018,08,05,02,15,15.60
2018,08,05,02,16,15.60
2018,08,05,02,17,15.60
2018,08,05,02,18,15.60
2018,08,05,02,19,15.60
2018,08,05,02,20,15.60
2018,08,05,02,21,15.60
2018,08,05,02,22,15.60
2018,08,05,02,23,15.60
2018,08,05,02,24,15.60
2018,08,05,02,25,15.60
2018,08,05,02,26,15.60
2018,08,05,02,27,15.60
2018,08,05,02,28,15.60
2018,08,05,02,29,15.60
2018,08,05,02,30,15.60
2018,08,05,02,31,15.60
2018,08,05,02,32,15.60
2018,08,05,02,33,15.60
2018,08,05,02,34,15.60
2018,08,05,02,35,15.60
2018,08,05,02,36,15.60
2018,08,05,02,37,15.60
2018,08,05,02,38,15.60
2018,08,05,02,39,15.60
2018,08,05,02,40,15.60
2018,08,05,02,41,15.50
2018,08,05,02,42,15.50
2018,08,05,02,43,15.50
2018,08,05,02,44,15.50
2018,08,05,02,45,15.50
2018,08,05,02,46,15.50
2018,08,05,02,47,15.50
2018,08,05,02,48,15.40
2018,08,05,02,49,15.40
2018,08,05,02,50,15.40
2018,08,05,02,51,15.40
2018,08,05,02,52,15.50
2018,08,05,02,53,15.50
2018,08,05,02,54,15.50
2018,08,05,02,55,15.50
2018,08,05,02,56,15.50
2018,08,05,02,57,15.50
2018,08,05,02,58,15.50
2018,08,05,02,59,15.50
2018,08,05,03,00,15.50
2018,08,05,03,01,15.50
2018,08,05,03,02,15.50
2018,08,05,03,03,15.50
2018,08,05,03,04,15.50
2018,08,05,03,05,15.50
2018,08,05,03,06,15.50
2018,08,05,03,07,15.40
2018,08,05,03,08,15.40
2018,08,05,03,09,15.40
2018,08,05,03,10,15.40
2018,08,05,03,11,15.30
2018,08,05,03,12,15.30
2018,08,05,03,13,15.30
2018,08,05,03,14,15.30
2018,08,05,03,15,15.30
2018,08,05,03,16,15.20
2018,08,05,03,17,15.20
2018,08,05,03,18,15.20
2018,08,05,03,19,15.10
2018,08,05,03,20,15.10
2018,08,05,03,21,15.10
2018,08,05,03,22,15.10
2018,08,05,03,23,15.00
2018,08,05,03,24,15.00
2018,08,05,03,25,15.00
2018,08,05,03,26,15.00
2018,08,05,03,27,15.00
2018,08,05,03,28,15.00
2018,08,05,03,29,14.90
2018,08,05,03,30,14.90
2018,08,05,03,31,14.90
2018,08,05,03,32,14.90
2018,08,05,03,33,14.90
2018,08,05,03,34,14.90
2018,08,05,03,35,14.90
2018,08,05,03,36,14.90
2018,08,05,03,37,14.90
2018,08,05,03,38,14.90
2018,08,05,03,39,14.90
2018,08,05,03,40,14.90
2018,08,05,03,41,14.90
2018,08,05,03,42,14.90
2018,08,05,03,43,14.90
2018,08,05,03,44,14.90
2018,08,05,03,45,15.00
2018,08,05,03,46,15.00
2018,08,05,03,47,15.00
2018,08,05,03,48,15.00
2018,08,05,03,49,15.00
2018,08,05,03,50,15.00
2018,08,05,03,51,15.00
2018,08,05,03,52,15.00
2018,08,05,03,53,15.00
2018,08,05,03,54,15.00
2018,08,05,03,55,15.00
2018,08,05,03,56,15.00
2018,08,05,03,57,15.00
2018,08,05,03,58,14.90
2018,08,05,03,59,14.90
2018,08,05,04,00,14.90
2018,08,05,04,01,14.90
2018,08,05,04,02,14.90
2018,08,05,04,03,14.80
2018,08,05,04,04,14.80
2018,08,05,04,05,14.80
2018,08,05,04,06,14.80
2018,08,05,04,07,14.80
2018,08,05,04,08,14.80
2018,08,05,04,09,14.80
2018,08,05,04,10,14.80
2018,08,05,04,11,14.80
2018,08,05,04,12,14.80
2018,08,05,04,13,14.80
2018,08,05,04,14,14.80
2018,08,05,04,15,14.80
2018,08,05,04,16,14.80
2018,08,05,04,17,14.80
2018,08,05,04,18,14.80
2018,08,05,04,19,14.80
2018,08,05,04,20,14.80
2018,08,05,04,21,14.80
2018,08,05,04,22,14.80
2018,08,05,04,23,14.80
2018,08,05,04,24,14.70
2018,08,05,04,25,14.70
2018,08,05,04,26,14.70
2018,08,05,04,27,14.70
2018,08,05,04,28,14.60
2018,08,05,04,29,14.60
2018,08,05,04,30,14.60
2018,08,05,04,31,14.60
2018,08,05,04,32,14.60
2018,08,05,04,33,14.50
2018,08,05,04,34,14.50
2018,08,05,04,35,14.50
2018,08,05,04,36,14.50
2018,08,05,04,37,14.50
2018,08,05,04,38,14.40
2018,08,05,04,39,14.40
2018,08,05,04,40,14.40
2018,08,05,04,41,14.50
2018,08,05,04,42,14.50
2018,08,05,04,43,14.50
2018,08,05,04,44,14.50
2018,08,05,04,45,14.50
2018,08,05,04,46,14.50
2018,08,05,04,47,14.50
2018,08,05,04,48,14.50
2018,08,05,04,49,14.50
2018,08,05,04,50,14.50
2018,08,05,04,51,14.60
2018,08,05,04,52,14.60
2018,08,05,04,53,14.60
2018,08,05,04,54,14.60
2018,08,05,04,55,14.60
2018,08,05,04,56,14.60
2018,08,05,04,57,14.60
2018,08,05,04,58,14.60
2018,08,05,04,59,14.60
2018,08,05,05,00,14.60
2018,08,05,05,01,14.60
2018,08,05,05,02,14.60
2018,08,05,05,03,14.60
2018,08,05,05,04,14.60
2018,08,05,05,05,14.50
2018,08,05,05,06,14.50
2018,08,05,05,07,14.50
2018,08,05,05,08,14.50
2018,08,05,05,09,14.50
2018,08,05,05,10,14.40
2018,08,05,05,11,14.40
2018,08,05,05,12,14.40
2018,08,05,05,13,14.40
2018,08,05,05,14,14.40
2018,08,05,05,15,14.40
2018,08,05,05,16,14.40
2018,08,05,05,17,14.30
2018,08,05,05,18,14.30
2018,08,05,05,19,14.30
2018,08,05,05,20,14.30
2018,08,05,05,21,14.20
2018,08,05,05,22,14.20
2018,08,05,05,23,14.20
2018,08,05,05,24,14.20
2018,08,05,05,25,14.20
2018,08,05,05,26,14.20
2018,08,05,05,27,14.20
2018,08,05,05,28,14.20
2018,08,05,05,29,14.20
2018,08,05,05,30,14.20
2018,08,05,05,31,14.20
2018,08,05,05,32,14.20
2018,08,05,05,33,14.20
2018,08,05,05,34,14.10
2018,08,05,05,35,14.10
2018,08,05,05,36,14.10
2018,08,05,05,37,14.10
2018,08,05,05,38,14.10
2018,08,05,05,39,14.10
2018,08,05,05,40,14.10
2018,08,05,05,41,14.10
2018,08,05,05,42,14.00
2018,08,05,05,43,14.00
2018,08,05,05,44,14.00
2018,08,05,05,45,14.00
2018,08,05,05,46,14.00
2018,08,05,05,47,13.90
2018,08,05,05,48,13.90
2018,08,05,05,49,13.90
2018,08,05,05,50,13.90
2018,08,05,05,51,13.80
2018,08,05,05,52,13.80
2018,08,05,05,53,13.80
2018,08,05,05,54,13.80
2018,08,05,05,55,13.80
2018,08,05,05,56,13.70
2018,08,05,05,57,13.70
2018,08,05,05,58,13.70
2018,08,05,05,59,13.70
2018,08,05,06,00,13.70
2018,08,05,06,01,13.70
2018,08,05,06,02,13.70
2018,08,05,06,03,13.70
2018,08,05,06,04,13.70
2018,08,05,06,05,13.70
2018,08,05,06,06,13.70
2018,08,05,06,07,13.60
2018,08,05,06,08,13.60
2018,08,05,06,09,13.60
2018,08,05,06,10,13.60
2018,08,05,06,11,13.60
2018,08,05,06,12,13.60
2018,08,05,06,13,13.60
2018,08,05,06,14,13.60
2018,08,05,06,15,13.60
2018,08,05,06,16,13.60
2018,08,05,06,17,13.60
2018,08,05,06,18,13.60
2018,08,05,06,19,13.60
2018,08,05,06,20,13.60
2018,08,05,06,21,13.60
2018,08,05,06,22,13.60
2018,08,05,06,23,13.70
2018,08,05,06,24,13.70
2018,08,05,06,25,13.70
2018,08,05,06,26,13.70
2018,08,05,06,27,13.70
2018,08,05,06,28,13.70
2018,08,05,06,29,13.70
2018,08,05,06,30,13.80
2018,08,05,06,31,13.80
2018,08,05,06,32,13.80
2018,08,05,06,33,13.90
2018,08,05,06,34,13.90
2018,08,05,06,35,14.00
2018,08,05,06,36,14.00
2018,08,05,06,37,14.00
2018,08,05,06,38,14.10
2018,08,05,06,39,14.20
2018,08,05,06,40,14.20
2018,08,05,06,41,14.20
2018,08,05,06,42,14.20
2018,08,05,06,43,14.20
2018,08,05,06,44,14.20
2018,08,05,06,45,14.20
2018,08,05,06,46,14.20
2018,08,05,06,47,14.20
2018,08,05,06,48,14.20
2018,08,05,06,49,14.20
2018,08,05,06,50,14.20
2018,08,05,06,51,14.20
2018,08,05,06,52,14.20
2018,08,05,06,53,14.20
2018,08,05,06,54,14.20
2018,08,05,06,55,14.30
2018,08,05,06,56,14.30
2018,08,05,06,57,14.30
2018,08,05,06,58,14.30
2018,08,05,06,59,14.30
2018,08,05,07,00,14.30
2018,08,05,07,01,14.30
2018,08,05,07,02,14.30
2018,08,05,07,03,14.30
2018,08,05,07,04,14.30
2018,08,05,07,05,14.30
2018,08,05,07,06,14.30
2018,08,05,07,07,14.30
2018,08,05,07,08,14.30
2018,08,05,07,09,14.30
2018,08,05,07,10,14.40
2018,08,05,07,11,14.40
2018,08,05,07,12,14.40
2018,08,05,07,13,14.40
2018,08,05,07,14,14.50
2018,08,05,07,15,14.50
2018,08,05,07,16,14.50
2018,08,05,07,17,14.50
2018,08,05,07,18,14.60
2018,08,05,07,19,14.60
2018,08,05,07,20,14.70
2018,08,05,07,21,14.70
2018,08,05,07,22,14.80
2018,08,05,07,23,14.80
2018,08,05,07,24,14.90
2018,08,05,07,25,15.00
2018,08,05,07,26,15.00
2018,08,05,07,27,15.10
2018,08,05,07,28,15.10
2018,08,05,07,29,15.20
2018,08,05,07,30,15.30
2018,08,05,07,31,15.30
2018,08,05,07,32,15.30
2018,08,05,07,33,15.40
2018,08,05,07,34,15.40
2018,08,05,07,35,15.50
2018,08,05,07,36,15.50
2018,08,05,07,37,15.50
2018,08,05,07,38,15.50
2018,08,05,07,39,15.60
2018,08,05,07,40,15.60
2018,08,05,07,41,15.70
2018,08,05,07,42,15.70
2018,08,05,07,43,15.80
2018,08,05,07,44,15.80
2018,08,05,07,45,15.90
2018,08,05,07,46,16.00
2018,08,05,07,47,16.10
2018,08,05,07,48,16.10
2018,08,05,07,49,16.20
2018,08,05,07,50,16.20
2018,08,05,07,51,16.30
2018,08,05,07,52,16.40
2018,08,05,07,53,16.40
2018,08,05,07,54,16.50
2018,08,05,07,55,16.60
2018,08,05,07,56,16.70
2018,08,05,07,57,16.70
2018,08,05,07,58,16.70
2018,08,05,07,59,16.80
2018,08,05,08,00,16.80
2018,08,05,08,01,16.90
2018,08,05,08,02,16.90
2018,08,05,08,03,17.00
2018,08,05,08,04,17.00
2018,08,05,08,05,17.10
2018,08,05,08,06,17.20
2018,08,05,08,07,17.30
2018,08,05,08,08,17.30
2018,08,05,08,09,17.30
2018,08,05,08,10,17.30
2018,08,05,08,11,17.40
2018,08,05,08,12,17.40
2018,08,05,08,13,17.50
2018,08,05,08,14,17.50
2018,08,05,08,15,17.60
2018,08,05,08,16,17.70
2018,08,05,08,17,17.80
2018,08,05,08,18,17.80
2018,08,05,08,19,17.90
2018,08,05,08,20,18.00
2018,08,05,08,21,18.10
2018,08,05,08,22,18.20
2018,08,05,08,23,18.30
2018,08,05,08,24,18.40
2018,08,05,08,25,18.40
2018,08,05,08,26,18.40
2018,08,05,08,27,18.40
2018,08,05,08,28,18.40
2018,08,05,08,29,18.40
2018,08,05,08,30,18.40
2018,08,05,08,31,18.40
2018,08,05,08,32,18.40
2018,08,05,08,33,18.50
2018,08,05,08,34,18.50
2018,08,05,08,35,18.60
2018,08,05,08,36,18.60
2018,08,05,08,37,18.70
2018,08,05,08,38,18.80
2018,08,05,08,39,18.80
2018,08,05,08,40,18.80
2018,08,05,08,41,18.90
2018,08,05,08,42,18.90
2018,08,05,08,43,18.90
2018,08,05,08,44,18.80
2018,08,05,08,45,18.80
2018,08,05,08,46,18.80
2018,08,05,08,47,18.80
2018,08,05,08,48,18.90
2018,08,05,08,49,18.90
2018,08,05,08,50,18.90
2018,08,05,08,51,18.90
2018,08,05,08,52,19.10
2018,08,05,08,53,19.10
2018,08,05,08,54,19.10
2018,08,05,08,55,19.10
2018,08,05,08,56,19.10
2018,08,05,08,57,19.10
2018,08,05,08,58,19.10
2018,08,05,08,59,19.10
2018,08,05,09,00,19.10
2018,08,05,09,01,19.00
2018,08,05,09,02,18.90
2018,08,05,09,03,18.90
2018,08,05,09,04,18.90
2018,08,05,09,05,19.10
2018,08,05,09,06,19.10
2018,08,05,09,07,19.10
2018,08,05,09,08,19.10
2018,08,05,09,09,19.10
2018,08,05,09,10,19.10
2018,08,05,09,11,19.10
2018,08,05,09,12,19.10
2018,08,05,09,13,19.10
2018,08,05,09,14,19.10
2018,08,05,09,15,19.10
2018,08,05,09,16,19.20
2018,08,05,09,17,19.20
2018,08,05,09,18,19.20
2018,08,05,09,19,19.20
2018,08,05,09,20,19.20
2018,08,05,09,21,19.20
2018,08,05,09,22,19.10
2018,08,05,09,23,19.20
2018,08,05,09,24,19.20
2018,08,05,09,25,19.20
2018,08,05,09,26,19.20
2018,08,05,09,27,19.20
2018,08,05,09,28,19.20
2018,08,05,09,29,19.20
2018,08,05,09,30,19.20
2018,08,05,09,31,19.20
2018,08,05,09,32,19.20
2018,08,05,09,33,19.30
2018,08,05,09,34,19.40
2018,08,05,09,35,19.50
2018,08,05,09,36,19.50
2018,08,05,09,37,19.60
2018,08,05,09,38,19.60
2018,08,05,09,39,19.70
2018,08,05,09,40,19.80
2018,08,05,09,41,19.80
2018,08,05,09,42,19.90
2018,08,05,09,43,20.00
2018,08,05,09,44,20.20
2018,08,05,09,45,20.20
2018,08,05,09,46,20.40
2018,08,05,09,47,20.50
2018,08,05,09,48,20.60
2018,08,05,09,49,20.70
2018,08,05,09,50,20.80
2018,08,05,09,51,20.80
2018,08,05,09,52,20.80
2018,08,05,09,53,20.80
2018,08,05,09,54,20.90
2018,08,05,09,55,20.90
2018,08,05,09,56,21.00
2018,08,05,09,57,21.00
2018,08,05,09,58,21.10
2018,08,05,09,59,21.00
2018,08,05,10,00,21.00
2018,08,05,10,01,21.00
2018,08,05,10,02,20.90
2018,08,05,10,03,20.90
2018,08,05,10,04,20.80
2018,08,05,10,05,20.90
2018,08,05,10,06,21.00
2018,08,05,10,07,21.00
2018,08,05,10,08,21.20
2018,08,05,10,09,21.20
2018,08,05,10,10,21.00
2018,08,05,10,11,21.00
2018,08,05,10,12,21.00
2018,08,05,10,13,21.10
2018,08,05,10,14,21.10
2018,08,05,10,15,21.20
2018,08,05,10,16,21.30
2018,08,05,10,17,21.30
2018,08,05,10,18,21.30
2018,08,05,10,19,21.40
2018,08,05,10,20,21.60
2018,08,05,10,21,21.60
2018,08,05,10,22,21.60
2018,08,05,10,23,21.60
2018,08,05,10,24,21.60
2018,08,05,10,25,21.60
2018,08,05,10,26,21.60
2018,08,05,10,27,21.50
2018,08,05,10,28,21.40
2018,08,05,10,29,21.50
2018,08,05,10,30,21.60
2018,08,05,10,31,21.70
2018,08,05,10,32,21.80
2018,08,05,10,33,21.90
2018,08,05,10,34,22.00
2018,08,05,10,35,22.10
2018,08,05,10,36,22.20
2018,08,05,10,37,22.10
2018,08,05,10,38,22.00
2018,08,05,10,39,22.00
2018,08,05,10,40,21.90
2018,08,05,10,41,21.80
2018,08,05,10,42,21.70
2018,08,05,10,43,21.70
2018,08,05,10,44,21.60
2018,08,05,10,45,21.50
2018,08,05,10,46,21.50
2018,08,05,10,47,21.60
2018,08,05,10,48,21.60
2018,08,05,10,49,21.70
2018,08,05,10,50,21.70
2018,08,05,10,51,21.60
2018,08,05,10,52,21.60
2018,08,05,10,53,21.60
2018,08,05,10,54,21.60
2018,08,05,10,55,21.60
2018,08,05,10,56,21.60
2018,08,05,10,57,21.80
2018,08,05,10,58,21.90
2018,08,05,10,59,22.00
2018,08,05,11,00,22.00
2018,08,05,11,01,22.00
2018,08,05,11,02,21.90
2018,08,05,11,03,21.80
2018,08,05,11,04,21.70
2018,08,05,11,05,21.70
2018,08,05,11,06,21.70
2018,08,05,11,07,21.60
2018,08,05,11,08,21.60
2018,08,05,11,09,21.60
2018,08,05,11,10,21.60
2018,08,05,11,11,21.50
2018,08,05,11,12,21.60
2018,08,05,11,13,21.60
2018,08,05,11,14,21.60
2018,08,05,11,15,21.60
2018,08,05,11,16,21.60
2018,08,05,11,17,21.60
2018,08,05,11,18,21.60
2018,08,05,11,19,21.60
2018,08,05,11,20,21.60
2018,08,05,11,21,21.60
2018,08,05,11,22,21.70
2018,08,05,11,23,21.80
2018,08,05,11,24,22.00
2018,08,05,11,25,22.00
2018,08,05,11,26,21.90
2018,08,05,11,27,21.80
2018,08,05,11,28,21.80
2018,08,05,11,29,21.80
2018,08,05,11,30,21.90
2018,08,05,11,31,21.90
2018,08,05,11,32,21.90
2018,08,05,11,33,21.90
2018,08,05,11,34,21.70
2018,08,05,11,35,21.80
2018,08,05,11,36,21.80
2018,08,05,11,37,21.90
2018,08,05,11,38,21.70
2018,08,05,11,39,21.60
2018,08,05,11,40,21.50
2018,08,05,11,41,21.40
2018,08,05,11,42,21.50
2018,08,05,11,43,21.60
2018,08,05,11,44,21.60
2018,08,05,11,45,21.60
2018,08,05,11,46,21.60
2018,08,05,11,47,21.50
2018,08,05,11,48,21.40
2018,08,05,11,49,21.30
2018,08,05,11,50,21.20
2018,08,05,11,51,21.20
2018,08,05,11,52,21.10
2018,08,05,11,53,21.10
2018,08,05,11,54,21.10
2018,08,05,11,55,21.20
2018,08,05,11,56,21.30
2018,08,05,11,57,21.30
2018,08,05,11,58,21.30
2018,08,05,11,59,21.30
2018,08,05,12,00,21.30
2018,08,05,12,01,21.30
2018,08,05,12,02,21.30
2018,08,05,12,03,21.30
2018,08,05,12,04,21.30
2018,08,05,12,05,21.40
2018,08,05,12,06,21.60
2018,08,05,12,07,21.70
2018,08,05,12,08,21.90
2018,08,05,12,09,22.00
2018,08,05,12,10,22.10
2018,08,05,12,11,22.10
2018,08,05,12,12,22.10
2018,08,05,12,13,22.00
2018,08,05,12,14,21.90
2018,08,05,12,15,21.80
2018,08,05,12,16,21.70
2018,08,05,12,17,21.70
2018,08,05,12,18,21.70
2018,08,05,12,19,21.70
2018,08,05,12,20,21.90
2018,08,05,12,21,22.00
2018,08,05,12,22,22.00
2018,08,05,12,23,22.10
2018,08,05,12,24,22.20
2018,08,05,12,25,22.20
2018,08,05,12,26,22.20
2018,08,05,12,27,22.20
2018,08,05,12,28,22.30
2018,08,05,12,29,22.40
2018,08,05,12,30,22.50
2018,08,05,12,31,22.60
2018,08,05,12,32,22.60
2018,08,05,12,33,22.70
2018,08,05,12,34,22.80
2018,08,05,12,35,22.70
2018,08,05,12,36,22.70
2018,08,05,12,37,22.70
2018,08,05,12,38,22.70
2018,08,05,12,39,22.70
2018,08,05,12,40,22.70
2018,08,05,12,41,22.80
2018,08,05,12,42,22.80
2018,08,05,12,43,22.70
2018,08,05,12,44,22.60
2018,08,05,12,45,22.60
2018,08,05,12,46,22.70
2018,08,05,12,47,22.70
2018,08,05,12,48,22.80
2018,08,05,12,49,22.80
2018,08,05,12,50,22.70
2018,08,05,12,51,22.50
2018,08,05,12,52,22.60
2018,08,05,12,53,22.60
2018,08,05,12,54,22.60
2018,08,05,12,55,22.60
2018,08,05,12,56,22.70
2018,08,05,12,57,22.70
2018,08,05,12,58,22.60
2018,08,05,12,59,22.60
2018,08,05,13,00,22.60
2018,08,05,13,01,22.70
2018,08,05,13,02,22.90
2018,08,05,13,03,23.00
2018,08,05,13,04,23.10
2018,08,05,13,05,23.30
2018,08,05,13,06,23.30
2018,08,05,13,07,23.30
2018,08,05,13,08,23.40
2018,08,05,13,09,23.60
2018,08,05,13,10,23.60
2018,08,05,13,11,23.70
2018,08,05,13,12,23.80
2018,08,05,13,13,24.00
2018,08,05,13,14,24.20
2018,08,05,13,15,24.30
2018,08,05,13,16,24.30
2018,08,05,13,17,24.10
2018,08,05,13,18,24.10
2018,08,05,13,19,24.10
2018,08,05,13,20,24.00
2018,08,05,13,21,23.80
2018,08,05,13,22,23.70
2018,08,05,13,23,23.50
2018,08,05,13,24,23.40
2018,08,05,13,25,23.30
2018,08,05,13,26,23.40
2018,08,05,13,27,23.50
2018,08,05,13,28,23.60
2018,08,05,13,29,23.70
2018,08,05,13,30,23.60
2018,08,05,13,31,23.50
2018,08,05,13,32,23.30
2018,08,05,13,33,23.40
2018,08,05,13,34,23.50
2018,08,05,13,35,23.50
2018,08,05,13,36,23.40
2018,08,05,13,37,23.40
2018,08,05,13,38,23.40
2018,08,05,13,39,23.60
2018,08,05,13,40,23.60
2018,08,05,13,41,23.60
2018,08,05,13,42,23.60
2018,08,05,13,43,23.80
2018,08,05,13,44,23.80
2018,08,05,13,45,23.60
2018,08,05,13,46,23.50
2018,08,05,13,47,23.40
2018,08,05,13,48,23.60
2018,08,05,13,49,23.80
2018,08,05,13,50,24.00
2018,08,05,13,51,24.10
2018,08,05,13,52,24.20
2018,08,05,13,53,24.30
2018,08,05,13,54,24.40
2018,08,05,13,55,24.50
2018,08,05,13,56,24.50
2018,08,05,13,57,24.50
2018,08,05,13,58,24.60
2018,08,05,13,59,24.70
2018,08,05,14,00,24.90
2018,08,05,14,01,24.90
2018,08,05,14,02,24.80
2018,08,05,14,03,24.70
2018,08,05,14,04,24.80
2018,08,05,14,05,24.80
2018,08,05,14,06,24.70
2018,08,05,14,07,24.70
2018,08,05,14,08,24.70
2018,08,05,14,09,24.80
2018,08,05,14,10,24.80
2018,08,05,14,11,24.90
2018,08,05,14,12,25.00
2018,08,05,14,13,25.20
2018,08,05,14,14,25.20
2018,08,05,14,15,25.20
2018,08,05,14,16,25.10
2018,08,05,14,17,25.10
2018,08,05,14,18,25.10
2018,08,05,14,19,25.20
2018,08,05,14,20,25.20
2018,08,05,14,21,25.00
2018,08,05,14,22,24.90
2018,08,05,14,23,24.90
2018,08,05,14,24,24.90
2018,08,05,14,25,24.90
2018,08,05,14,26,24.90
2018,08,05,14,27,24.70
2018,08,05,14,28,24.60
2018,08,05,14,29,24.60
2018,08,05,14,30,24.70
2018,08,05,14,31,24.70
2018,08,05,14,32,24.80
2018,08,05,14,33,24.80
2018,08,05,14,34,24.90
2018,08,05,14,35,24.90
2018,08,05,14,36,25.00
2018,08,05,14,37,25.10
2018,08,05,14,38,25.20
2018,08,05,14,39,25.10
2018,08,05,14,40,25.10
2018,08,05,14,41,25.10
2018,08,05,14,42,25.10
2018,08,05,14,43,25.00
2018,08,05,14,44,24.90
2018,08,05,14,45,24.80
2018,08,05,14,46,24.80
2018,08,05,14,47,24.90
2018,08,05,14,48,25.00
2018,08,05,14,49,25.10
2018,08,05,14,50,25.30
2018,08,05,14,51,25.40
2018,08,05,14,52,25.50
2018,08,05,14,53,25.80
2018,08,05,14,54,25.90
2018,08,05,14,55,26.00
2018,08,05,14,56,26.00
2018,08,05,14,57,25.90
2018,08,05,14,58,25.80
2018,08,05,14,59,25.70
2018,08,05,15,00,25.60
2018,08,05,15,01,25.40
2018,08,05,15,02,25.20
2018,08,05,15,03,25.00
2018,08,05,15,04,25.00
2018,08,05,15,05,25.00
2018,08,05,15,06,25.10
2018,08,05,15,07,25.10
2018,08,05,15,08,25.10
2018,08,05,15,09,25.10
2018,08,05,15,10,25.20
2018,08,05,15,11,25.30
2018,08,05,15,12,25.40
2018,08,05,15,13,25.60
2018,08,05,15,14,25.60
2018,08,05,15,15,25.70
2018,08,05,15,16,25.60
2018,08,05,15,17,25.60
2018,08,05,15,18,25.60
2018,08,05,15,19,25.60
2018,08,05,15,20,25.60
2018,08,05,15,21,25.60
2018,08,05,15,22,25.70
2018,08,05,15,23,25.70
2018,08,05,15,24,25.80
2018,08,05,15,25,25.90
2018,08,05,15,26,26.00
2018,08,05,15,27,26.00
2018,08,05,15,28,25.90
2018,08,05,15,29,25.90
2018,08,05,15,30,26.00
2018,08,05,15,31,26.00
2018,08,05,15,32,25.80
2018,08,05,15,33,25.70
2018,08,05,15,34,25.60
2018,08,05,15,35,25.80
2018,08,05,15,36,25.90
2018,08,05,15,37,26.20
2018,08,05,15,38,26.30
2018,08,05,15,39,26.40
2018,08,05,15,40,26.50
2018,08,05,15,41,26.60
2018,08,05,15,42,26.60
2018,08,05,15,43,26.70
2018,08,05,15,44,26.90
2018,08,05,15,45,27.00
2018,08,05,15,46,27.20
2018,08,05,15,47,27.30
2018,08,05,15,48,27.20
2018,08,05,15,49,27.20
2018,08,05,15,50,27.10
2018,08,05,15,51,27.10
2018,08,05,15,52,27.00
2018,08,05,15,53,27.10
2018,08,05,15,54,27.10
2018,08,05,15,55,27.10
2018,08,05,15,56,27.30
2018,08,05,15,57,27.30
2018,08,05,15,58,27.40
2018,08,05,15,59,27.40
2018,08,05,16,00,27.50
2018,08,05,16,01,27.60
2018,08,05,16,02,27.70
2018,08,05,16,03,27.60
2018,08,05,16,04,27.50
2018,08,05,16,05,27.40
2018,08,05,16,06,27.40
2018,08,05,16,07,27.30
2018,08,05,16,08,27.30
2018,08,05,16,09,27.00
2018,08,05,16,10,26.80
2018,08,05,16,11,26.70
2018,08,05,16,12,26.50
2018,08,05,16,13,26.40
2018,08,05,16,14,26.30
2018,08,05,16,15,26.40
2018,08,05,16,16,26.50
2018,08,05,16,17,26.60
2018,08,05,16,18,26.60
2018,08,05,16,19,26.80
2018,08,05,16,20,26.90
2018,08,05,16,21,27.00
2018,08,05,16,22,27.10
2018,08,05,16,23,27.20
2018,08,05,16,24,27.10
2018,08,05,16,25,27.20
2018,08,05,16,26,27.30
2018,08,05,16,27,27.30
2018,08,05,16,28,27.20
2018,08,05,16,29,27.10
2018,08,05,16,30,27.10
2018,08,05,16,31,27.20
2018,08,05,16,32,27.30
2018,08,05,16,33,27.30
2018,08,05,16,34,27.40
2018,08,05,16,35,27.40
2018,08,05,16,36,27.50
2018,08,05,16,37,27.60
2018,08,05,16,38,27.80
2018,08,05,16,39,27.90
2018,08,05,16,40,28.10
2018,08,05,16,41,28.10
2018,08,05,16,42,27.90
2018,08,05,16,43,27.80
2018,08,05,16,44,27.70
2018,08,05,16,45,27.60
2018,08,05,16,46,27.60
2018,08,05,16,47,27.70
2018,08,05,16,48,27.70
2018,08,05,16,49,27.80
2018,08,05,16,50,27.80
2018,08,05,16,51,27.90
2018,08,05,16,52,27.90
2018,08,05,16,53,28.00
2018,08,05,16,54,28.00
2018,08,05,16,55,28.10
2018,08,05,16,56,28.10
2018,08,05,16,57,28.10
2018,08,05,16,58,28.20
2018,08,05,16,59,28.30
2018,08,05,17,00,28.40
2018,08,05,17,01,28.40
2018,08,05,17,02,28.30
2018,08,05,17,03,28.20
2018,08,05,17,04,28.00
2018,08,05,17,05,27.90
2018,08,05,17,06,27.80
2018,08,05,17,07,27.80
2018,08,05,17,08,27.80
2018,08,05,17,09,27.80
2018,08,05,17,10,27.80
2018,08,05,17,11,27.80
2018,08,05,17,12,27.80
2018,08,05,17,13,27.70
2018,08,05,17,14,27.70
2018,08,05,17,15,27.80
2018,08,05,17,16,27.80
2018,08,05,17,17,27.80
2018,08,05,17,18,27.90
2018,08,05,17,19,27.90